owner,sensor,date,latitude,longitude,vertical_datum,direction_of_sea_water_velocity,sea_water_speed,upward_sea_water_velocity,qcFlag 
TABS,ioos:station:wmo:42050:1,1999-08-01T00:00:00Z,28.8425,-94.2433,2.0,114.9104167,16.2629948,-99999.0,'11111222,11111222,99999999' 
TABS,ioos:station:wmo:42050:1,1999-08-01T00:30:00Z,28.8425,-94.2433,2.0,113.0697616,16.35819672,-99999.0,'11111222,11111222,99999999' 
TABS,ioos:station:wmo:42050:1,1999-08-01T01:00:00Z,28.8425,-94.2433,2.0,164.3989882,14.39015288,-99999.0,'11111222,11111222,99999999' 
TABS,ioos:station:wmo:42050:1,1999-08-01T01:30:00Z,28.8425,-94.2433,2.0,170.7775313,17.6582502,-99999.0,'11111222,11111222,99999999' 
TABS,ioos:station:wmo:42050:1,1999-08-01T02:00:00Z,28.8425,-94.2433,2.0,177.5971857,14.31258188,-99999.0,'11111222,11111222,99999999' 
TABS,ioos:station:wmo:42050:1,1999-08-01T02:30:00Z,28.8425,-94.2433,2.0,181.1532373,14.90301983,-99999.0,'11111222,11111222,99999999' 
TABS,ioos:station:wmo:42050:1,1999-08-01T03:00:00Z,28.8425,-94.2433,2.0,187.4773096,17.13572292,-99999.0,'11111222,11111222,99999999' 
TABS,ioos:station:wmo:42050:1,1999-08-01T03:30:00Z,28.8425,-94.2433,2.0,199.9703727,15.69369619,-99999.0,'11111222,11111222,99999999' 
TABS,ioos:station:wmo:42050:1,1999-08-01T04:00:00Z,28.8425,-94.2433,2.0,204.4612446,16.20452406,-99999.0,'11111222,11111222,99999999' 
TABS,ioos:station:wmo:42050:1,1999-08-01T04:30:00Z,28.8425,-94.2433,2.0,220.5320691,13.52562383,-99999.0,'11111222,11111222,99999999' 
TABS,ioos:station:wmo:42050:1,1999-08-01T05:00:00Z,28.8425,-94.2433,2.0,220.9278799,10.45621825,-99999.0,'11111222,11111222,99999999' 
TABS,ioos:station:wmo:42050:1,1999-08-01T05:30:00Z,28.8425,-94.2433,2.0,225.6779752,8.959670753,-99999.0,'11133222,11111222,99999999' 
TABS,ioos:station:wmo:42050:1,1999-08-01T06:00:00Z,28.8425,-94.2433,2.0,236.9867551,6.570882741,-99999.0,'11133222,11111222,99999999' 
TABS,ioos:station:wmo:42050:1,1999-08-01T06:30:00Z,28.8425,-94.2433,2.0,237.8152624,4.749873683,-99999.0,'11133222,11111222,99999999' 
TABS,ioos:station:wmo:42050:1,1999-08-01T07:00:00Z,28.8425,-94.2433,2.0,236.3095903,4.831438709,-99999.0,'11133222,11111222,99999999' 
TABS,ioos:station:wmo:42050:1,1999-08-01T07:30:00Z,28.8425,-94.2433,2.0,237.3337609,2.482680004,-99999.0,'11133222,11111222,99999999' 
TABS,ioos:station:wmo:42050:1,1999-08-01T08:00:00Z,28.8425,-94.2433,2.0,216.8183526,2.236000894,-99999.0,'11133222,11111222,99999999' 
TABS,ioos:station:wmo:42050:1,1999-08-01T08:30:00Z,28.8425,-94.2433,2.0,162.4074061,3.440930107,-99999.0,'11133222,11111222,99999999' 
TABS,ioos:station:wmo:42050:1,1999-08-01T09:00:00Z,28.8425,-94.2433,2.0,157.4930795,4.676162957,-99999.0,'11133222,11111222,99999999' 
TABS,ioos:station:wmo:42050:1,1999-08-01T09:30:00Z,28.8425,-94.2433,2.0,159.0019878,6.22326281,-99999.0,'11133222,11111222,99999999' 
TABS,ioos:station:wmo:42050:1,1999-08-01T10:00:00Z,28.8425,-94.2433,2.0,154.1837205,10.26442887,-99999.0,'11111222,11111222,99999999' 
TABS,ioos:station:wmo:42050:1,1999-08-01T10:30:00Z,28.8425,-94.2433,2.0,152.4622826,11.59344642,-99999.0,'11111222,11111222,99999999' 
TABS,ioos:station:wmo:42050:1,1999-08-01T11:00:00Z,28.8425,-94.2433,2.0,156.3163775,13.34383753,-99999.0,'11111222,11111222,99999999' 
TABS,ioos:station:wmo:42050:1,1999-08-01T11:30:00Z,28.8425,-94.2433,2.0,148.2419592,14.72456791,-99999.0,'11111222,11111222,99999999' 
TABS,ioos:station:wmo:42050:1,1999-08-01T12:00:00Z,28.8425,-94.2433,2.0,156.7917814,15.88545246,-99999.0,'11111222,11111222,99999999' 
TABS,ioos:station:wmo:42050:1,1999-08-01T12:30:00Z,28.8425,-94.2433,2.0,153.1973889,16.18927114,-99999.0,'11111222,11111222,99999999' 
TABS,ioos:station:wmo:42050:1,1999-08-01T13:00:00Z,28.8425,-94.2433,2.0,156.5112223,16.08261795,-99999.0,'11111222,11111222,99999999' 
TABS,ioos:station:wmo:42050:1,1999-08-01T13:30:00Z,28.8425,-94.2433,2.0,158.4488831,18.26702494,-99999.0,'11111222,11111222,99999999' 
TABS,ioos:station:wmo:42050:1,1999-08-01T14:00:00Z,28.8425,-94.2433,2.0,161.1638557,20.78299786,-99999.0,'11111222,11111222,99999999' 
TABS,ioos:station:wmo:42050:1,1999-08-01T14:30:00Z,28.8425,-94.2433,2.0,161.080105,22.05135143,-99999.0,'11111222,11111222,99999999' 
TABS,ioos:station:wmo:42050:1,1999-08-01T15:00:00Z,28.8425,-94.2433,2.0,155.2941734,22.46642384,-99999.0,'11111222,11111222,99999999' 
TABS,ioos:station:wmo:42050:1,1999-08-01T15:30:00Z,28.8425,-94.2433,2.0,157.6554893,23.51565649,-99999.0,'11111222,11111222,99999999' 
TABS,ioos:station:wmo:42050:1,1999-08-01T16:00:00Z,28.8425,-94.2433,2.0,150.6061214,24.28645713,-99999.0,'11111222,11111222,99999999' 
TABS,ioos:station:wmo:42050:1,1999-08-01T16:30:00Z,28.8425,-94.2433,2.0,158.2616059,26.9462669,-99999.0,'11111222,11111222,99999999' 
TABS,ioos:station:wmo:42050:1,1999-08-01T17:00:00Z,28.8425,-94.2433,2.0,156.3280145,27.82084291,-99999.0,'11111222,11111222,99999999' 
TABS,ioos:station:wmo:42050:1,1999-08-01T17:30:00Z,28.8425,-94.2433,2.0,149.782786,27.24143352,-99999.0,'11111222,11111222,99999999' 
TABS,ioos:station:wmo:42050:1,1999-08-01T18:00:00Z,28.8425,-94.2433,2.0,151.1404329,29.93811784,-99999.0,'11111222,11111222,99999999' 
TABS,ioos:station:wmo:42050:1,1999-08-01T18:30:00Z,28.8425,-94.2433,2.0,150.0017091,28.90161587,-99999.0,'11111222,11111222,99999999' 
TABS,ioos:station:wmo:42050:1,1999-08-01T19:00:00Z,28.8425,-94.2433,2.0,149.755723,30.17755623,-99999.0,'11111222,11111222,99999999' 
TABS,ioos:station:wmo:42050:1,1999-08-01T19:30:00Z,28.8425,-94.2433,2.0,147.897977,28.32000353,-99999.0,'11111222,11111222,99999999' 
TABS,ioos:station:wmo:42050:1,1999-08-01T20:00:00Z,28.8425,-94.2433,2.0,144.9659843,28.02838918,-99999.0,'11111222,11111222,99999999' 
TABS,ioos:station:wmo:42050:1,1999-08-01T20:30:00Z,28.8425,-94.2433,2.0,146.9692417,28.43581544,-99999.0,'11111222,11111222,99999999' 
TABS,ioos:station:wmo:42050:1,1999-08-01T21:00:00Z,28.8425,-94.2433,2.0,147.8617092,27.4455388,-99999.0,'11111222,11111222,99999999' 
TABS,ioos:station:wmo:42050:1,1999-08-01T21:30:00Z,28.8425,-94.2433,2.0,149.8705003,27.91092438,-99999.0,'11111222,11111222,99999999' 
TABS,ioos:station:wmo:42050:1,1999-08-01T22:00:00Z,28.8425,-94.2433,2.0,152.0469961,27.32829486,-99999.0,'11111222,11111222,99999999' 
TABS,ioos:station:wmo:42050:1,1999-08-01T22:30:00Z,28.8425,-94.2433,2.0,151.4087621,28.33527836,-99999.0,'11111222,11111222,99999999' 
TABS,ioos:station:wmo:42050:1,1999-08-01T23:00:00Z,28.8425,-94.2433,2.0,153.5654844,27.45004189,-99999.0,'11111222,11111222,99999999' 
TABS,ioos:station:wmo:42050:1,1999-08-01T23:30:00Z,28.8425,-94.2433,2.0,152.5761457,26.85819242,-99999.0,'11111222,11111222,99999999' 
TABS,ioos:station:wmo:42050:1,1999-08-02T00:00:00Z,28.8425,-94.2433,2.0,153.147126,26.72134914,-99999.0,'11111222,11111222,99999999' 
TABS,ioos:station:wmo:42050:1,1999-08-02T00:30:00Z,28.8425,-94.2433,2.0,155.5611608,26.99898702,-99999.0,'11111222,11111222,99999999' 
TABS,ioos:station:wmo:42050:1,1999-08-02T01:00:00Z,28.8425,-94.2433,2.0,156.5021521,26.15922399,-99999.0,'11111222,11111222,99999999' 
TABS,ioos:station:wmo:42050:1,1999-08-02T01:30:00Z,28.8425,-94.2433,2.0,155.8265158,24.00497657,-99999.0,'11111222,11111222,99999999' 
TABS,ioos:station:wmo:42050:1,1999-08-02T02:00:00Z,28.8425,-94.2433,2.0,154.412447,19.65789918,-99999.0,'11111222,11111222,99999999' 
TABS,ioos:station:wmo:42050:1,1999-08-02T02:30:00Z,28.8425,-94.2433,2.0,155.363043,19.67064818,-99999.0,'11111222,11111222,99999999' 
TABS,ioos:station:wmo:42050:1,1999-08-02T03:00:00Z,28.8425,-94.2433,2.0,155.7098845,18.47554059,-99999.0,'11111222,11111222,99999999' 
TABS,ioos:station:wmo:42050:1,1999-08-02T03:30:00Z,28.8425,-94.2433,2.0,152.7536426,16.92823086,-99999.0,'11111222,11111222,99999999' 
TABS,ioos:station:wmo:42050:1,1999-08-02T04:00:00Z,28.8425,-94.2433,2.0,159.3234687,15.60513057,-99999.0,'11111222,11111222,99999999' 
TABS,ioos:station:wmo:42050:1,1999-08-02T04:30:00Z,28.8425,-94.2433,2.0,156.0373566,14.67479812,-99999.0,'11111222,11111222,99999999' 
TABS,ioos:station:wmo:42050:1,1999-08-02T05:00:00Z,28.8425,-94.2433,2.0,158.3880464,10.10002475,-99999.0,'11111222,11111222,99999999' 
TABS,ioos:station:wmo:42050:1,1999-08-02T05:30:00Z,28.8425,-94.2433,2.0,145.4675477,8.679222315,-99999.0,'11133222,11111222,99999999' 
TABS,ioos:station:wmo:42050:1,1999-08-02T06:00:00Z,28.8425,-94.2433,2.0,129.5660596,8.885837046,-99999.0,'11133222,11111222,99999999' 
TABS,ioos:station:wmo:42050:1,1999-08-02T06:30:00Z,28.8425,-94.2433,2.0,119.5021014,9.076943318,-99999.0,'11133222,11111222,99999999' 
TABS,ioos:station:wmo:42050:1,1999-08-02T07:00:00Z,28.8425,-94.2433,2.0,111.8234548,9.630160954,-99999.0,'11133222,11111222,99999999' 
TABS,ioos:station:wmo:42050:1,1999-08-02T07:30:00Z,28.8425,-94.2433,2.0,114.5763559,9.665635002,-99999.0,'11133222,11111222,99999999' 
TABS,ioos:station:wmo:42050:1,1999-08-02T08:00:00Z,28.8425,-94.2433,2.0,108.4195161,11.77316015,-99999.0,'11111222,11111222,99999999' 
TABS,ioos:station:wmo:42050:1,1999-08-02T08:30:00Z,28.8425,-94.2433,2.0,99.70543092,12.39743925,-99999.0,'11111222,11111222,99999999' 
TABS,ioos:station:wmo:42050:1,1999-08-02T09:00:00Z,28.8425,-94.2433,2.0,94.86450306,12.26417547,-99999.0,'11111222,11111222,99999999' 
TABS,ioos:station:wmo:42050:1,1999-08-02T09:30:00Z,28.8425,-94.2433,2.0,97.8067031,14.28237025,-99999.0,'11111222,11111222,99999999' 
TABS,ioos:station:wmo:42050:1,1999-08-02T10:00:00Z,28.8425,-94.2433,2.0,91.80241502,14.30707867,-99999.0,'11111222,11111222,99999999' 
TABS,ioos:station:wmo:42050:1,1999-08-02T10:30:00Z,28.8425,-94.2433,2.0,91.31088439,13.11343205,-99999.0,'11111222,11111222,99999999' 
TABS,ioos:station:wmo:42050:1,1999-08-02T11:00:00Z,28.8425,-94.2433,2.0,96.34444031,14.84089283,-99999.0,'11111222,11111222,99999999' 
TABS,ioos:station:wmo:42050:1,1999-08-02T11:30:00Z,28.8425,-94.2433,2.0,94.94101588,15.55781476,-99999.0,'11111222,11111222,99999999' 
TABS,ioos:station:wmo:42050:1,1999-08-02T12:00:00Z,28.8425,-94.2433,2.0,93.3509848,15.22603363,-99999.0,'11111222,11111222,99999999' 
TABS,ioos:station:wmo:42050:1,1999-08-02T12:30:00Z,28.8425,-94.2433,2.0,101.309906,15.19507815,-99999.0,'11111222,11111222,99999999' 
TABS,ioos:station:wmo:42050:1,1999-08-02T13:00:00Z,28.8425,-94.2433,2.0,99.22225828,17.6582502,-99999.0,'11111222,11111222,99999999' 
TABS,ioos:station:wmo:42050:1,1999-08-02T13:30:00Z,28.8425,-94.2433,2.0,101.9954225,19.34235766,-99999.0,'11111222,11111222,99999999' 
TABS,ioos:station:wmo:42050:1,1999-08-02T14:00:00Z,28.8425,-94.2433,2.0,105.4676123,20.09792278,-99999.0,'11111222,11111222,99999999' 
TABS,ioos:station:wmo:42050:1,1999-08-02T14:30:00Z,28.8425,-94.2433,2.0,108.4436438,20.73505486,-99999.0,'11111222,11111222,99999999' 
TABS,ioos:station:wmo:42050:1,1999-08-02T15:00:00Z,28.8425,-94.2433,2.0,114.9946752,21.86801317,-99999.0,'11111222,11111222,99999999' 
TABS,ioos:station:wmo:42050:1,1999-08-02T15:30:00Z,28.8425,-94.2433,2.0,115.0376038,24.99917799,-99999.0,'11111222,11111222,99999999' 
TABS,ioos:station:wmo:42050:1,1999-08-02T16:00:00Z,28.8425,-94.2433,2.0,111.0187854,22.02552156,-99999.0,'11111222,11111222,99999999' 
TABS,ioos:station:wmo:42050:1,1999-08-02T16:30:00Z,28.8425,-94.2433,2.0,114.2895379,20.27476264,-99999.0,'11111222,11111222,99999999' 
TABS,ioos:station:wmo:42050:1,1999-08-02T17:00:00Z,28.8425,-94.2433,2.0,117.5426356,19.65789918,-99999.0,'11111222,11111222,99999999' 
TABS,ioos:station:wmo:42050:1,1999-08-02T17:30:00Z,28.8425,-94.2433,2.0,120.8987547,21.18694881,-99999.0,'11111222,11111222,99999999' 
TABS,ioos:station:wmo:42050:1,1999-08-02T18:00:00Z,28.8425,-94.2433,2.0,121.7604567,22.07571743,-99999.0,'11111222,11111222,99999999' 
TABS,ioos:station:wmo:42050:1,1999-08-02T18:30:00Z,28.8425,-94.2433,2.0,117.5596052,19.32253865,-99999.0,'11111222,11111222,99999999' 
TABS,ioos:station:wmo:42050:1,1999-08-02T19:00:00Z,28.8425,-94.2433,2.0,109.6031167,15.9759851,-99999.0,'11111222,11111222,99999999' 
TABS,ioos:station:wmo:42050:1,1999-08-02T19:30:00Z,28.8425,-94.2433,2.0,102.9186881,11.31643937,-99999.0,'11111222,11111222,99999999' 
TABS,ioos:station:wmo:42050:1,1999-08-02T20:00:00Z,28.8425,-94.2433,2.0,93.54684536,9.698577215,-99999.0,'11133222,11111222,99999999' 
TABS,ioos:station:wmo:42050:1,1999-08-02T20:30:00Z,28.8425,-94.2433,2.0,99.01646712,9.507481265,-99999.0,'11133222,11111222,99999999' 
TABS,ioos:station:wmo:42050:1,1999-08-02T21:00:00Z,28.8425,-94.2433,2.0,75.94639541,7.989123857,-99999.0,'11133222,11111222,99999999' 
TABS,ioos:station:wmo:42050:1,1999-08-02T21:30:00Z,28.8425,-94.2433,2.0,70.47073038,7.119585662,-99999.0,'11133222,11111222,99999999' 
TABS,ioos:station:wmo:42050:1,1999-08-02T22:00:00Z,28.8425,-94.2433,2.0,56.33113797,7.521735172,-99999.0,'11133222,11111222,99999999' 
TABS,ioos:station:wmo:42050:1,1999-08-02T22:30:00Z,28.8425,-94.2433,2.0,32.4090958,9.179809366,-99999.0,'11133222,11111222,99999999' 
TABS,ioos:station:wmo:42050:1,1999-08-02T23:00:00Z,28.8425,-94.2433,2.0,33.71709225,11.81788898,-99999.0,'11111222,11111222,99999999' 
TABS,ioos:station:wmo:42050:1,1999-08-02T23:30:00Z,28.8425,-94.2433,2.0,23.89124699,11.40742302,-99999.0,'11111222,11111222,99999999' 
TABS,ioos:station:wmo:42050:1,1999-08-03T00:00:00Z,28.8425,-94.2433,2.0,32.91787821,9.053529698,-99999.0,'11133222,11111222,99999999' 
TABS,ioos:station:wmo:42050:1,1999-08-03T00:30:00Z,28.8425,-94.2433,2.0,36.14162545,9.5967755,-99999.0,'11133222,11111222,99999999' 
TABS,ioos:station:wmo:42050:1,1999-08-03T01:00:00Z,28.8425,-94.2433,2.0,50.30741967,9.097037979,-99999.0,'11133222,11111222,99999999' 
TABS,ioos:station:wmo:42050:1,1999-08-03T01:30:00Z,28.8425,-94.2433,2.0,55.46775819,8.679222315,-99999.0,'11133222,11111222,99999999' 
TABS,ioos:station:wmo:42050:1,1999-08-03T02:00:00Z,28.8425,-94.2433,2.0,65.91558176,6.199717736,-99999.0,'11133222,11111222,99999999' 
TABS,ioos:station:wmo:42050:1,1999-08-03T02:30:00Z,28.8425,-94.2433,2.0,95.38638478,11.07892143,-99999.0,'11111222,11111222,99999999' 
TABS,ioos:station:wmo:42050:1,1999-08-03T03:00:00Z,28.8425,-94.2433,2.0,94.70784124,14.4989172,-99999.0,'11111222,11111222,99999999' 
TABS,ioos:station:wmo:42050:1,1999-08-03T03:30:00Z,28.8425,-94.2433,2.0,92.00603264,17.14050466,-99999.0,'11111222,11111222,99999999' 
TABS,ioos:station:wmo:42050:1,1999-08-03T04:00:00Z,28.8425,-94.2433,2.0,93.67549474,20.902995,-99999.0,'11111222,11111222,99999999' 
TABS,ioos:station:wmo:42050:1,1999-08-03T04:30:00Z,28.8425,-94.2433,2.0,96.25301046,23.22819408,-99999.0,'11111222,11111222,99999999' 
TABS,ioos:station:wmo:42050:1,1999-08-03T05:00:00Z,28.8425,-94.2433,2.0,96.82133355,27.61548117,-99999.0,'11111222,11111222,99999999' 
TABS,ioos:station:wmo:42050:1,1999-08-03T05:30:00Z,28.8425,-94.2433,2.0,102.5014958,29.6120955,-99999.0,'11111222,11111222,99999999' 
TABS,ioos:station:wmo:42050:1,1999-08-03T06:00:00Z,28.8425,-94.2433,2.0,106.7042448,32.66858124,-99999.0,'11111222,11111222,99999999' 
TABS,ioos:station:wmo:42050:1,1999-08-03T06:30:00Z,28.8425,-94.2433,2.0,102.5836937,32.81833939,-99999.0,'11111222,11111222,99999999' 
TABS,ioos:station:wmo:42050:1,1999-08-03T07:00:00Z,28.8425,-94.2433,2.0,98.61476516,39.788908,-99999.0,'11111222,11111222,99999999' 
TABS,ioos:station:wmo:42050:1,1999-08-03T09:30:00Z,28.8425,-94.2433,2.0,96.77018887,45.46704411,-99999.0,'11111222,11111222,99999999' 
TABS,ioos:station:wmo:42050:1,1999-08-03T10:00:00Z,28.8425,-94.2433,2.0,97.90072128,46.63265165,-99999.0,'11111222,11111222,99999999' 
TABS,ioos:station:wmo:42050:1,1999-08-03T10:30:00Z,28.8425,-94.2433,2.0,99.79916229,46.41721232,-99999.0,'11111222,11111222,99999999' 
TABS,ioos:station:wmo:42050:1,1999-08-03T11:00:00Z,28.8425,-94.2433,2.0,104.1200637,46.40196548,-99999.0,'11111222,11111222,99999999' 
TABS,ioos:station:wmo:42050:1,1999-08-03T11:30:00Z,28.8425,-94.2433,2.0,106.8394826,45.7727397,-99999.0,'11111222,11111222,99999999' 
TABS,ioos:station:wmo:42050:1,1999-08-03T12:00:00Z,28.8425,-94.2433,2.0,107.6610666,45.18990706,-99999.0,'11111222,11111222,99999999' 
TABS,ioos:station:wmo:42050:1,1999-08-03T12:30:00Z,28.8425,-94.2433,2.0,108.8433679,46.1324788,-99999.0,'11111222,11111222,99999999' 
TABS,ioos:station:wmo:42050:1,1999-08-03T13:00:00Z,28.8425,-94.2433,2.0,111.7341259,47.47490284,-99999.0,'11111222,11111222,99999999' 
TABS,ioos:station:wmo:42050:1,1999-08-03T13:30:00Z,28.8425,-94.2433,2.0,114.2737471,48.21239363,-99999.0,'11111222,11111222,99999999' 
TABS,ioos:station:wmo:42050:1,1999-08-03T14:00:00Z,28.8425,-94.2433,2.0,118.8708466,49.68541235,-99999.0,'11111222,11111222,99999999' 
TABS,ioos:station:wmo:42050:1,1999-08-03T14:30:00Z,28.8425,-94.2433,2.0,121.5393153,50.69925542,-99999.0,'11111222,11111222,99999999' 
TABS,ioos:station:wmo:42050:1,1999-08-03T15:00:00Z,28.8425,-94.2433,2.0,124.0495483,52.15116585,-99999.0,'11111222,11111222,99999999' 
TABS,ioos:station:wmo:42050:1,1999-08-03T15:30:00Z,28.8425,-94.2433,2.0,128.656244,51.51703893,-99999.0,'11111222,11111222,99999999' 
TABS,ioos:station:wmo:42050:1,1999-08-03T16:00:00Z,28.8425,-94.2433,2.0,128.9050688,53.61182052,-99999.0,'11111222,11111222,99999999' 
TABS,ioos:station:wmo:42050:1,1999-08-03T16:30:00Z,28.8425,-94.2433,2.0,132.4403572,54.3104861,-99999.0,'11111222,11111222,99999999' 
TABS,ioos:station:wmo:42050:1,1999-08-03T17:00:00Z,28.8425,-94.2433,2.0,134.889612,55.10493354,-99999.0,'11111222,11111222,99999999' 
TABS,ioos:station:wmo:42050:1,1999-08-03T17:30:00Z,28.8425,-94.2433,2.0,136.8456267,55.76308815,-99999.0,'11111222,11111222,99999999' 
TABS,ioos:station:wmo:42050:1,1999-08-03T18:00:00Z,28.8425,-94.2433,2.0,137.5297972,54.94625465,-99999.0,'11111222,11111222,99999999' 
TABS,ioos:station:wmo:42050:1,1999-08-03T18:30:00Z,28.8425,-94.2433,2.0,138.4202348,52.9788873,-99999.0,'11111222,11111222,99999999' 
TABS,ioos:station:wmo:42050:1,1999-08-03T19:00:00Z,28.8425,-94.2433,2.0,140.1106873,50.88062991,-99999.0,'11111222,11111222,99999999' 
TABS,ioos:station:wmo:42050:1,1999-08-03T19:30:00Z,28.8425,-94.2433,2.0,140.6587718,49.12168259,-99999.0,'11111222,11111222,99999999' 
TABS,ioos:station:wmo:42050:1,1999-08-03T20:00:00Z,28.8425,-94.2433,2.0,140.8591617,47.44726019,-99999.0,'11111222,11111222,99999999' 
TABS,ioos:station:wmo:42050:1,1999-08-03T20:30:00Z,28.8425,-94.2433,2.0,142.4344618,43.99124117,-99999.0,'11111222,11111222,99999999' 
TABS,ioos:station:wmo:42050:1,1999-08-03T21:00:00Z,28.8425,-94.2433,2.0,141.5448428,39.76521721,-99999.0,'11111222,11111222,99999999' 
TABS,ioos:station:wmo:42050:1,1999-08-03T21:30:00Z,28.8425,-94.2433,2.0,139.3952388,37.09076974,-99999.0,'11111222,11111222,99999999' 
TABS,ioos:station:wmo:42050:1,1999-08-03T22:00:00Z,28.8425,-94.2433,2.0,135.3818601,31.82051225,-99999.0,'11111222,11111222,99999999' 
TABS,ioos:station:wmo:42050:1,1999-08-03T22:30:00Z,28.8425,-94.2433,2.0,131.4744122,30.81746583,-99999.0,'11111222,11111222,99999999' 
TABS,ioos:station:wmo:42050:1,1999-08-03T23:00:00Z,28.8425,-94.2433,2.0,127.6264658,29.53257523,-99999.0,'11111222,11111222,99999999' 
TABS,ioos:station:wmo:42050:1,1999-08-03T23:30:00Z,28.8425,-94.2433,2.0,124.7042186,27.73380789,-99999.0,'11111222,11111222,99999999' 
TABS,ioos:station:wmo:42050:1,1999-08-04T00:00:00Z,28.8425,-94.2433,2.0,119.8192969,25.7607958,-99999.0,'11111222,11111222,99999999' 
TABS,ioos:station:wmo:42050:1,1999-08-04T00:30:00Z,28.8425,-94.2433,2.0,116.5548697,25.32123417,-99999.0,'11111222,11111222,99999999' 
TABS,ioos:station:wmo:42050:1,1999-08-04T01:00:00Z,28.8425,-94.2433,2.0,117.3137768,25.3233963,-99999.0,'11111222,11111222,99999999' 
TABS,ioos:station:wmo:42050:1,1999-08-04T01:30:00Z,28.8425,-94.2433,2.0,119.204376,27.48359875,-99999.0,'11111222,11111222,99999999' 
TABS,ioos:station:wmo:42050:1,1999-08-04T02:00:00Z,28.8425,-94.2433,2.0,113.6555781,27.48987632,-99999.0,'11111222,11111222,99999999' 
TABS,ioos:station:wmo:42050:1,1999-08-04T02:30:00Z,28.8425,-94.2433,2.0,114.5392704,28.33974771,-99999.0,'11111222,11111222,99999999' 
TABS,ioos:station:wmo:42050:1,1999-08-04T03:00:00Z,28.8425,-94.2433,2.0,111.0360461,29.05648465,-99999.0,'11111222,11111222,99999999' 
TABS,ioos:station:wmo:42050:1,1999-08-04T03:30:00Z,28.8425,-94.2433,2.0,113.001292,27.84369408,-99999.0,'11111222,11111222,99999999' 
TABS,ioos:station:wmo:42050:1,1999-08-04T04:00:00Z,28.8425,-94.2433,2.0,112.7624396,28.12008713,-99999.0,'11111222,11111222,99999999' 
TABS,ioos:station:wmo:42050:1,1999-08-04T04:30:00Z,28.8425,-94.2433,2.0,115.7342697,27.45285595,-99999.0,'11111222,11111222,99999999' 
TABS,ioos:station:wmo:42050:1,1999-08-04T05:00:00Z,28.8425,-94.2433,2.0,112.938972,26.37579383,-99999.0,'11111222,11111222,99999999' 
TABS,ioos:station:wmo:42050:1,1999-08-04T05:30:00Z,28.8425,-94.2433,2.0,112.5875835,25.98308103,-99999.0,'11111222,11111222,99999999' 
TABS,ioos:station:wmo:42050:1,1999-08-04T06:00:00Z,28.8425,-94.2433,2.0,109.4694145,25.92225299,-99999.0,'11111222,11111222,99999999' 
TABS,ioos:station:wmo:42050:1,1999-08-04T06:30:00Z,28.8425,-94.2433,2.0,107.2055098,24.17169005,-99999.0,'11111222,11111222,99999999' 
TABS,ioos:station:wmo:42050:1,1999-08-04T07:00:00Z,28.8425,-94.2433,2.0,104.3837335,23.99206536,-99999.0,'11111222,11111222,99999999' 
TABS,ioos:station:wmo:42050:1,1999-08-04T07:30:00Z,28.8425,-94.2433,2.0,93.32135759,23.12884995,-99999.0,'11111222,11111222,99999999' 
TABS,ioos:station:wmo:42050:1,1999-08-04T08:00:00Z,28.8425,-94.2433,2.0,87.70321827,25.95084777,-99999.0,'11111222,11111222,99999999' 
TABS,ioos:station:wmo:42050:1,1999-08-04T08:30:00Z,28.8425,-94.2433,2.0,81.7890346,26.04701134,-99999.0,'11111222,11111222,99999999' 
TABS,ioos:station:wmo:42050:1,1999-08-04T09:00:00Z,28.8425,-94.2433,2.0,81.96240349,24.53098041,-99999.0,'11111222,11111222,99999999' 
TABS,ioos:station:wmo:42050:1,1999-08-04T09:30:00Z,28.8425,-94.2433,2.0,80.82174645,25.20267446,-99999.0,'11111222,11111222,99999999' 
TABS,ioos:station:wmo:42050:1,1999-08-04T10:00:00Z,28.8425,-94.2433,2.0,75.87916555,26.27391292,-99999.0,'11111222,11111222,99999999' 
TABS,ioos:station:wmo:42050:1,1999-08-04T10:30:00Z,28.8425,-94.2433,2.0,75.95840341,25.80093991,-99999.0,'11111222,11111222,99999999' 
TABS,ioos:station:wmo:42050:1,1999-08-04T11:00:00Z,28.8425,-94.2433,2.0,73.13840595,25.684215,-99999.0,'11111222,11111222,99999999' 
TABS,ioos:station:wmo:42050:1,1999-08-04T11:30:00Z,28.8425,-94.2433,2.0,74.42823333,24.4369638,-99999.0,'11111222,11111222,99999999' 
TABS,ioos:station:wmo:42050:1,1999-08-04T12:00:00Z,28.8425,-94.2433,2.0,71.21263065,23.13249878,-99999.0,'11111222,11111222,99999999' 
TABS,ioos:station:wmo:42050:1,1999-08-04T12:30:00Z,28.8425,-94.2433,2.0,73.00237101,24.45842595,-99999.0,'11111222,11111222,99999999' 
TABS,ioos:station:wmo:42050:1,1999-08-04T13:00:00Z,28.8425,-94.2433,2.0,75.39768749,26.02049192,-99999.0,'11111222,11111222,99999999' 
TABS,ioos:station:wmo:42050:1,1999-08-04T13:30:00Z,28.8425,-94.2433,2.0,74.61484762,24.72608339,-99999.0,'11111222,11111222,99999999' 
TABS,ioos:station:wmo:42050:1,1999-08-04T14:00:00Z,28.8425,-94.2433,2.0,77.14243032,24.76085015,-99999.0,'11111222,11111222,99999999' 
TABS,ioos:station:wmo:42050:1,1999-08-04T14:30:00Z,28.8425,-94.2433,2.0,81.44467923,23.05655872,-99999.0,'11111222,11111222,99999999' 
TABS,ioos:station:wmo:42050:1,1999-08-04T15:00:00Z,28.8425,-94.2433,2.0,89.61547124,22.35050335,-99999.0,'11111222,11111222,99999999' 
TABS,ioos:station:wmo:42050:1,1999-08-04T15:30:00Z,28.8425,-94.2433,2.0,93.81406592,22.3996116,-99999.0,'11111222,11111222,99999999' 
TABS,ioos:station:wmo:42050:1,1999-08-04T16:00:00Z,28.8425,-94.2433,2.0,96.67751415,21.75759637,-99999.0,'11111222,11111222,99999999' 
TABS,ioos:station:wmo:42050:1,1999-08-04T16:30:00Z,28.8425,-94.2433,2.0,102.1766157,19.05878538,-99999.0,'11111222,11111222,99999999' 
TABS,ioos:station:wmo:42050:1,1999-08-04T17:00:00Z,28.8425,-94.2433,2.0,107.2929511,19.04069326,-99999.0,'11111222,11111222,99999999' 
TABS,ioos:station:wmo:42050:1,1999-08-04T17:30:00Z,28.8425,-94.2433,2.0,107.6441482,16.72687957,-99999.0,'11111222,11111222,99999999' 
TABS,ioos:station:wmo:42050:1,1999-08-04T18:00:00Z,28.8425,-94.2433,2.0,107.153192,16.68202626,-99999.0,'11111222,11111222,99999999' 